Time,TemperatureF,DewpointF,PressureIn,WindDirection,WindDirectionDegrees,WindSpeedMPH,WindSpeedGustMPH,Humidity,HourlyPrecipIn,Conditions,Clouds,dailyrainin,SoftwareType,DateUTC
2013-07-23 00:02:00,67.9,65.0,29.89,NNW,348,1.0,4.0,91,0.00,,,0.19,weatherlink.com 1.10,2013-07-23 04:02:00,
2013-07-23 00:17:00,67.8,65.0,29.88,NNW,348,1.0,3.0,91,0.00,,,0.19,weatherlink.com 1.10,2013-07-23 04:17:00,
2013-07-23 00:32:00,67.7,65.0,29.87,NNW,348,2.0,3.0,92,0.00,,,0.00,weatherlink.com 1.10,2013-07-23 04:32:00,
2013-07-23 00:47:00,67.5,66.0,29.87,NNW,348,1.0,3.0,93,0.00,,,0.00,weatherlink.com 1.10,2013-07-23 04:47:00,
2013-07-23 01:02:00,67.2,66.0,29.86,NNW,338,0.0,5.0,94,0.00,,,0.00,weatherlink.com 1.10,2013-07-23 05:02:00,
2013-07-23 01:17:00,67.1,66.0,29.86,NNW,338,1.0,3.0,95,0.01,,,0.01,weatherlink.com 1.10,2013-07-23 05:17:00,
2013-07-23 01:32:00,67.0,66.0,29.86,NNW,338,1.0,3.0,95,0.02,,,0.02,weatherlink.com 1.10,2013-07-23 05:32:00,
2013-07-23 01:47:00,67.0,66.0,29.85,NNW,338,1.0,3.0,96,0.02,,,0.02,weatherlink.com 1.10,2013-07-23 05:47:00,
2013-07-23 02:03:00,67.0,66.0,29.84,NNW,338,1.0,3.0,96,0.03,,,0.03,weatherlink.com 1.10,2013-07-23 06:03:00,
2013-07-23 02:18:00,67.0,66.0,29.84,NNW,338,2.0,3.0,96,0.03,,,0.04,weatherlink.com 1.10,2013-07-23 06:18:00,
2013-07-23 02:33:00,67.3,66.0,29.82,North,357,4.0,5.0,96,0.02,,,0.04,weatherlink.com 1.10,2013-07-23 06:33:00,
2013-07-23 02:48:00,67.3,66.0,29.82,North,352,4.0,6.0,96,0.03,,,0.05,weatherlink.com 1.10,2013-07-23 06:48:00,
2013-07-23 03:03:00,67.2,66.0,29.81,North,352,2.0,3.0,96,0.03,,,0.06,weatherlink.com 1.10,2013-07-23 07:03:00,
2013-07-23 03:18:00,67.0,66.0,29.80,NNW,334,2.0,3.0,96,0.04,,,0.08,weatherlink.com 1.10,2013-07-23 07:18:00,
2013-07-23 03:33:00,67.1,66.0,29.78,North,357,5.0,5.0,96,0.05,,,0.09,weatherlink.com 1.10,2013-07-23 07:33:00,
2013-07-23 03:48:00,67.1,66.0,29.77,NNW,345,3.0,6.0,96,0.08,,,0.13,weatherlink.com 1.10,2013-07-23 07:48:00,
2013-07-23 04:03:00,67.2,66.0,29.77,North,358,2.0,7.0,97,0.10,,,0.16,weatherlink.com 1.10,2013-07-23 08:03:00,
2013-07-23 04:18:00,67.2,66.0,29.76,North,360,3.0,6.0,96,0.12,,,0.20,weatherlink.com 1.10,2013-07-23 08:18:00,
2013-07-23 04:33:00,67.0,66.0,29.76,NW,304,3.0,5.0,96,0.19,,,0.28,weatherlink.com 1.10,2013-07-23 08:33:00,
2013-07-23 04:48:00,67.0,66.0,29.75,North,9,1.0,5.0,97,0.29,,,0.42,weatherlink.com 1.10,2013-07-23 08:48:00,
2013-07-23 05:03:00,66.9,66.0,29.75,North,6,3.0,4.0,97,0.49,,,0.65,weatherlink.com 1.10,2013-07-23 09:03:00,
2013-07-23 05:18:00,66.6,66.0,29.75,SSE,165,3.0,4.0,97,0.89,,,1.09,weatherlink.com 1.10,2013-07-23 09:18:00,
2013-07-23 05:33:00,66.6,66.0,29.75,SW,229,1.0,4.0,97,1.30,,,1.58,weatherlink.com 1.10,2013-07-23 09:33:00,
2013-07-23 05:48:00,66.6,66.0,29.75,SW,231,1.0,5.0,97,1.25,,,1.68,weatherlink.com 1.10,2013-07-23 09:48:00,
2013-07-23 06:03:00,66.6,66.0,29.73,North,355,6.0,8.0,97,1.08,,,1.73,weatherlink.com 1.10,2013-07-23 10:03:00,
2013-07-23 06:18:00,66.5,66.0,29.73,North,354,4.0,4.0,97,0.71,,,1.80,weatherlink.com 1.10,2013-07-23 10:18:00,
2013-07-23 06:33:00,66.5,66.0,29.74,NNW,337,0.0,3.0,97,0.35,,,1.93,weatherlink.com 1.10,2013-07-23 10:33:00,
2013-07-23 06:48:00,66.3,66.0,29.72,North,8,4.0,5.0,97,0.32,,,2.01,weatherlink.com 1.10,2013-07-23 10:48:00,
2013-07-23 07:03:00,66.4,66.0,29.72,North,359,4.0,5.0,97,0.32,,,2.05,weatherlink.com 1.10,2013-07-23 11:03:00,
2013-07-23 07:18:00,66.2,65.0,29.72,NW,324,2.0,4.0,97,0.27,,,2.08,weatherlink.com 1.10,2013-07-23 11:18:00,
2013-07-23 07:33:00,66.2,65.0,29.72,WNW,303,2.0,3.0,97,0.19,,,2.13,weatherlink.com 1.10,2013-07-23 11:33:00,
2013-07-23 07:48:00,66.1,65.0,29.71,WNW,303,1.0,3.0,97,0.15,,,2.16,weatherlink.com 1.10,2013-07-23 11:48:00,
2013-07-23 08:03:00,66.3,66.0,29.70,NW,325,2.0,4.0,97,0.13,,,2.18,weatherlink.com 1.10,2013-07-23 12:03:00,
2013-07-23 08:18:00,66.2,65.0,29.70,NW,326,1.0,4.0,97,0.13,,,2.22,weatherlink.com 1.10,2013-07-23 12:18:00,
2013-07-23 08:33:00,66.2,65.0,29.68,NNW,338,2.0,4.0,97,0.14,,,2.27,weatherlink.com 1.10,2013-07-23 12:33:00,
2013-07-23 08:48:00,66.3,66.0,29.67,North,351,2.0,5.0,97,0.14,,,2.30,weatherlink.com 1.10,2013-07-23 12:48:00,
2013-07-23 09:03:00,66.7,66.0,29.66,North,4,0.0,4.0,96,0.11,,,2.30,weatherlink.com 1.10,2013-07-23 13:03:00,
2013-07-23 09:18:00,67.0,66.0,29.67,North,1,2.0,6.0,96,0.07,,,2.30,weatherlink.com 1.10,2013-07-23 13:18:00,
2013-07-23 09:33:00,67.3,66.0,29.66,North,4,1.0,3.0,95,0.03,,,2.31,weatherlink.com 1.10,2013-07-23 13:33:00,
2013-07-23 09:49:00,67.4,66.0,29.65,North,356,2.0,5.0,95,0.01,,,2.31,weatherlink.com 1.10,2013-07-23 13:49:00,
2013-07-23 10:04:00,68.0,67.0,29.64,East,87,3.0,6.0,95,0.01,,,2.31,weatherlink.com 1.10,2013-07-23 14:04:00,
2013-07-23 10:19:00,68.5,67.0,29.63,North,351,3.0,7.0,95,0.01,,,2.31,weatherlink.com 1.10,2013-07-23 14:19:00,
2013-07-23 10:34:00,68.6,67.0,29.63,NNW,339,1.0,4.0,94,0.00,,,2.31,weatherlink.com 1.10,2013-07-23 14:34:00,
2013-07-23 10:49:00,68.9,67.0,29.63,NNW,339,0.0,2.0,94,0.00,,,2.31,weatherlink.com 1.10,2013-07-23 14:49:00,
2013-07-23 11:04:00,69.0,67.0,29.62,NW,305,2.0,3.0,94,0.00,,,2.31,weatherlink.com 1.10,2013-07-23 15:04:00,
2013-07-23 11:19:00,68.7,67.0,29.62,NNW,339,1.0,5.0,94,0.00,,,2.31,weatherlink.com 1.10,2013-07-23 15:19:00,
2013-07-23 11:34:00,68.9,67.0,29.62,NNW,339,1.0,4.0,94,0.00,,,2.31,weatherlink.com 1.10,2013-07-23 15:34:00,
2013-07-23 11:49:00,68.9,68.0,29.62,NNW,339,3.0,3.0,95,0.00,,,2.31,weatherlink.com 1.10,2013-07-23 15:49:00,
2013-07-23 12:04:00,69.1,67.0,29.61,ENE,75,2.0,4.0,94,0.00,,,2.31,weatherlink.com 1.10,2013-07-23 16:04:00,
2013-07-23 12:19:00,69.4,68.0,29.60,East,96,3.0,6.0,95,0.00,,,2.31,weatherlink.com 1.10,2013-07-23 16:19:00,
2013-07-23 12:34:00,69.8,68.0,29.60,NNW,327,1.0,6.0,94,0.00,,,2.31,weatherlink.com 1.10,2013-07-23 16:34:00,
2013-07-23 12:49:00,69.9,68.0,29.59,NNW,341,0.0,3.0,94,0.00,,,2.31,weatherlink.com 1.10,2013-07-23 16:49:00,
2013-07-23 13:04:00,70.4,69.0,29.58,NNE,27,3.0,4.0,94,0.00,,,2.31,weatherlink.com 1.10,2013-07-23 17:04:00,
2013-07-23 13:19:00,70.6,68.0,29.57,NNE,23,2.0,5.0,92,0.00,,,2.31,weatherlink.com 1.10,2013-07-23 17:19:00,
2013-07-23 13:34:00,70.9,69.0,29.57,NNW,346,2.0,7.0,93,0.00,,,2.31,weatherlink.com 1.10,2013-07-23 17:34:00,
2013-07-23 13:49:00,71.7,69.0,29.57,North,359,1.0,4.0,92,0.00,,,2.31,weatherlink.com 1.10,2013-07-23 17:49:00,
2013-07-23 14:04:00,71.8,69.0,29.56,North,4,1.0,5.0,91,0.00,,,2.31,weatherlink.com 1.10,2013-07-23 18:04:00,
2013-07-23 14:19:00,72.6,70.0,29.56,North,3,0.0,2.0,90,0.00,,,2.31,weatherlink.com 1.10,2013-07-23 18:19:00,
2013-07-23 14:34:00,73.3,70.0,29.56,North,3,0.0,3.0,89,0.00,,,2.31,weatherlink.com 1.10,2013-07-23 18:34:00,
2013-07-23 14:49:00,73.7,70.0,29.55,North,3,0.0,3.0,89,0.00,,,2.31,weatherlink.com 1.10,2013-07-23 18:49:00,
2013-07-23 15:34:00,71.4,69.0,29.56,NNE,20,1.0,6.0,93,0.02,,,2.33,weatherlink.com 1.10,2013-07-23 19:34:00,
2013-07-23 15:49:00,71.6,70.0,29.56,North,357,1.0,8.0,94,0.02,,,2.33,weatherlink.com 1.10,2013-07-23 19:49:00,
2013-07-23 16:04:00,72.0,70.0,29.55,NW,320,4.0,6.0,93,0.01,,,2.33,weatherlink.com 1.10,2013-07-23 20:04:00,
2013-07-23 16:19:00,72.4,70.0,29.55,NW,306,5.0,5.0,92,0.00,,,2.33,weatherlink.com 1.10,2013-07-23 20:19:00,
2013-07-23 16:34:00,72.8,70.0,29.55,North,2,3.0,8.0,91,0.00,,,2.33,weatherlink.com 1.10,2013-07-23 20:34:00,
2013-07-23 16:49:00,73.4,70.0,29.55,NW,322,5.0,7.0,90,0.00,,,2.33,weatherlink.com 1.10,2013-07-23 20:49:00,
2013-07-23 17:04:00,74.1,71.0,29.54,North,354,2.0,6.0,89,0.00,,,2.33,weatherlink.com 1.10,2013-07-23 21:04:00,
2013-07-23 17:20:00,76.4,71.0,29.53,North,357,2.0,6.0,83,0.00,,,2.33,weatherlink.com 1.10,2013-07-23 21:20:00,
2013-07-23 17:35:00,76.2,71.0,29.53,SW,235,10.0,13.0,83,0.00,,,2.33,weatherlink.com 1.10,2013-07-23 21:35:00,
2013-07-23 17:50:00,76.6,71.0,29.53,NNW,329,1.0,7.0,82,0.00,,,2.33,weatherlink.com 1.10,2013-07-23 21:50:00,
2013-07-23 18:35:00,76.5,71.0,29.53,North,1,3.0,5.0,83,0.00,,,2.33,weatherlink.com 1.10,2013-07-23 22:35:00,
2013-07-23 18:50:00,76.7,71.0,29.52,North,353,0.0,3.0,83,0.00,,,2.33,weatherlink.com 1.10,2013-07-23 22:50:00,
2013-07-23 19:05:00,76.8,72.0,29.53,North,353,1.0,2.0,85,0.00,,,2.33,weatherlink.com 1.10,2013-07-23 23:05:00,
2013-07-23 19:20:00,75.6,72.0,29.54,North,353,1.0,1.0,88,0.00,,,2.33,weatherlink.com 1.10,2013-07-23 23:20:00,
2013-07-23 19:35:00,74.0,71.0,29.55,North,353,1.0,2.0,91,0.00,,,2.33,weatherlink.com 1.10,2013-07-23 23:35:00,
2013-07-23 19:50:00,73.2,71.0,29.55,North,353,0.0,2.0,93,0.00,,,2.33,weatherlink.com 1.10,2013-07-23 23:50:00,
2013-07-23 20:05:00,72.7,71.0,29.56,North,353,1.0,2.0,94,0.00,,,2.33,weatherlink.com 1.10,2013-07-24 00:05:00,
2013-07-23 20:20:00,72.2,71.0,29.56,North,353,1.0,2.0,95,0.00,,,2.33,weatherlink.com 1.10,2013-07-24 00:20:00,
2013-07-23 20:35:00,71.5,70.0,29.55,North,353,1.0,2.0,95,0.00,,,2.33,weatherlink.com 1.10,2013-07-24 00:35:00,
2013-07-23 20:50:00,70.9,70.0,29.55,North,353,2.0,2.0,96,0.00,,,2.33,weatherlink.com 1.10,2013-07-24 00:50:00,
2013-07-23 21:20:00,70.0,69.0,29.56,North,353,1.0,1.0,96,0.00,,,2.33,weatherlink.com 1.10,2013-07-24 01:20:00,
2013-07-23 22:05:00,68.9,68.0,29.57,North,353,1.0,2.0,97,0.00,,,2.33,weatherlink.com 1.10,2013-07-24 02:05:00,
2013-07-23 22:20:00,68.4,68.0,29.57,North,353,1.0,2.0,97,0.00,,,2.33,weatherlink.com 1.10,2013-07-24 02:20:00,
2013-07-23 22:35:00,68.2,67.0,29.57,North,353,0.0,1.0,97,0.00,,,2.33,weatherlink.com 1.10,2013-07-24 02:35:00,
2013-07-23 22:50:00,67.8,67.0,29.57,North,353,1.0,2.0,97,0.00,,,2.33,weatherlink.com 1.10,2013-07-24 02:50:00,
2013-07-23 23:20:00,67.2,66.0,29.57,North,353,1.0,2.0,97,0.00,,,2.33,weatherlink.com 1.10,2013-07-24 03:20:00,
2013-07-23 23:50:00,66.6,66.0,29.58,North,353,0.0,2.0,97,0.00,,,2.33,weatherlink.com 1.10,2013-07-24 03:50:00,